Time,TemperatureF,DewpointF,PressureIn,WindDirection,WindDirectionDegrees,WindSpeedMPH,WindSpeedGustMPH,Humidity,HourlyPrecipIn,Conditions,Clouds,dailyrainin,SoftwareType,DateUTC
2013-10-21 06:00:00,31.8,29.8,30.11,South,180,0.0,0.0,92,0.00,,,0.00,Weather View 32 v70,2013-10-21 14:00:00,
2013-10-21 06:01:00,31.8,29.8,30.11,South,180,0.0,0.0,92,0.00,,,0.00,Weather View 32 v70,2013-10-21 14:01:00,
2013-10-21 06:06:00,31.8,29.8,30.10,South,180,0.0,0.0,92,0.00,,,0.00,Weather View 32 v70,2013-10-21 14:06:00,
2013-10-21 06:11:00,31.8,29.8,30.10,South,180,0.0,0.0,92,0.00,,,0.00,Weather View 32 v70,2013-10-21 14:11:00,
2013-10-21 06:16:00,32.2,30.1,30.10,South,180,0.0,0.0,92,0.00,,,0.00,Weather View 32 v70,2013-10-21 14:16:00,
2013-10-21 06:21:00,32.2,30.1,30.10,South,180,0.0,0.0,92,0.00,,,0.00,Weather View 32 v70,2013-10-21 14:21:00,
2013-10-21 06:26:00,32.4,30.3,30.11,South,180,0.0,0.0,92,0.00,,,0.00,Weather View 32 v70,2013-10-21 14:26:00,
2013-10-21 06:31:00,32.4,30.3,30.11,South,180,0.0,0.0,92,0.00,,,0.00,Weather View 32 v70,2013-10-21 14:31:00,
2013-10-21 06:36:00,32.5,30.5,30.11,South,180,0.0,0.0,92,0.00,,,0.00,Weather View 32 v70,2013-10-21 14:36:00,
2013-10-21 06:41:00,32.5,30.5,30.11,South,180,0.0,0.0,92,0.00,,,0.00,Weather View 32 v70,2013-10-21 14:41:00,
2013-10-21 06:46:00,32.4,30.3,30.11,South,180,0.0,0.0,92,0.00,,,0.00,Weather View 32 v70,2013-10-21 14:46:00,
2013-10-21 06:51:00,32.2,30.1,30.11,South,180,0.0,0.0,92,0.00,,,0.00,Weather View 32 v70,2013-10-21 14:51:00,
2013-10-21 06:56:00,31.8,29.8,30.11,South,180,0.0,0.0,92,0.00,,,0.00,Weather View 32 v70,2013-10-21 14:56:00,
2013-10-21 07:01:00,31.8,29.8,30.11,South,180,0.0,0.0,92,0.00,,,0.00,Weather View 32 v70,2013-10-21 15:01:00,
2013-10-21 07:06:00,31.5,29.4,30.11,South,180,1.0,1.0,92,0.00,,,0.00,Weather View 32 v70,2013-10-21 15:06:00,
2013-10-21 07:11:00,31.3,29.2,30.11,South,180,0.0,1.0,92,0.00,,,0.00,Weather View 32 v70,2013-10-21 15:11:00,
2013-10-21 07:16:00,31.3,29.2,30.11,South,180,0.0,1.0,92,0.00,,,0.00,Weather View 32 v70,2013-10-21 15:16:00,
2013-10-21 07:21:00,31.5,29.4,30.11,South,180,0.0,1.0,92,0.00,,,0.00,Weather View 32 v70,2013-10-21 15:21:00,
2013-10-21 07:26:00,31.8,30.0,30.12,South,180,0.0,1.0,93,0.00,,,0.00,Weather View 32 v70,2013-10-21 15:26:00,
2013-10-21 07:31:00,32.0,30.2,30.12,South,180,0.0,1.0,93,0.00,,,0.00,Weather View 32 v70,2013-10-21 15:31:00,
2013-10-21 07:36:00,32.2,30.4,30.12,South,180,0.0,1.0,93,0.00,,,0.00,Weather View 32 v70,2013-10-21 15:36:00,
2013-10-21 07:41:00,32.2,30.4,30.12,South,180,0.0,1.0,93,0.00,,,0.00,Weather View 32 v70,2013-10-21 15:41:00,
2013-10-21 07:46:00,32.2,30.4,30.12,South,180,0.0,1.0,93,0.00,,,0.00,Weather View 32 v70,2013-10-21 15:46:00,
2013-10-21 07:51:00,32.2,30.4,30.12,South,180,0.0,1.0,93,0.00,,,0.00,Weather View 32 v70,2013-10-21 15:51:00,
2013-10-21 07:56:00,32.5,30.7,30.12,South,180,0.0,1.0,93,0.00,,,0.00,Weather View 32 v70,2013-10-21 15:56:00,
2013-10-21 08:01:00,32.5,30.7,30.12,South,180,0.0,1.0,93,0.00,,,0.00,Weather View 32 v70,2013-10-21 16:01:00,
2013-10-21 08:06:00,32.2,30.1,30.12,South,180,0.0,1.0,92,0.00,,,0.00,Weather View 32 v70,2013-10-21 16:06:00,
2013-10-21 08:11:00,32.2,30.1,30.12,South,180,0.0,1.0,92,0.00,,,0.00,Weather View 32 v70,2013-10-21 16:11:00,
2013-10-21 08:16:00,31.8,29.8,30.12,South,180,0.0,0.0,92,0.00,,,0.00,Weather View 32 v70,2013-10-21 16:16:00,
2013-10-21 08:21:00,31.5,29.4,30.12,South,180,0.0,0.0,92,0.00,,,0.00,Weather View 32 v70,2013-10-21 16:21:00,
2013-10-21 08:26:00,31.3,29.2,30.13,South,180,0.0,0.0,92,0.00,,,0.00,Weather View 32 v70,2013-10-21 16:26:00,
2013-10-21 08:31:00,31.1,29.0,30.13,South,180,0.0,0.0,92,0.00,,,0.00,Weather View 32 v70,2013-10-21 16:31:00,
2013-10-21 08:36:00,31.1,29.0,30.13,South,180,0.0,0.0,92,0.00,,,0.00,Weather View 32 v70,2013-10-21 16:36:00,
2013-10-21 08:41:00,30.7,28.7,30.13,South,180,0.0,0.0,92,0.00,,,0.00,Weather View 32 v70,2013-10-21 16:41:00,
2013-10-21 08:46:00,30.6,28.5,30.13,South,180,0.0,0.0,92,0.00,,,0.00,Weather View 32 v70,2013-10-21 16:46:00,
2013-10-21 08:51:00,30.6,28.5,30.13,South,180,0.0,0.0,92,0.00,,,0.00,Weather View 32 v70,2013-10-21 16:51:00,
2013-10-21 08:56:00,30.4,28.3,30.13,South,180,0.0,0.0,92,0.00,,,0.00,Weather View 32 v70,2013-10-21 16:56:00,
2013-10-21 09:01:00,30.4,28.3,30.13,South,180,0.0,0.0,92,0.00,,,0.00,Weather View 32 v70,2013-10-21 17:01:00,
2013-10-21 09:06:00,30.4,28.3,30.14,South,180,0.0,0.0,92,0.00,,,0.00,Weather View 32 v70,2013-10-21 17:06:00,
2013-10-21 09:11:00,30.2,28.2,30.14,South,180,0.0,0.0,92,0.00,,,0.00,Weather View 32 v70,2013-10-21 17:11:00,
2013-10-21 09:16:00,30.4,28.3,30.14,South,180,0.0,0.0,92,0.00,,,0.00,Weather View 32 v70,2013-10-21 17:16:00,
2013-10-21 09:21:00,30.2,28.2,30.14,South,180,0.0,0.0,92,0.00,,,0.00,Weather View 32 v70,2013-10-21 17:21:00,
2013-10-21 09:26:00,30.4,28.3,30.17,South,180,0.0,0.0,92,0.00,,,0.00,Weather View 32 v70,2013-10-21 17:26:00,
2013-10-21 09:31:00,30.4,28.3,30.17,South,180,0.0,0.0,92,0.00,,,0.00,Weather View 32 v70,2013-10-21 17:31:00,
2013-10-21 09:36:00,30.6,28.5,30.17,South,180,0.0,0.0,92,0.00,,,0.00,Weather View 32 v70,2013-10-21 17:36:00,
2013-10-21 09:41:00,31.1,29.3,30.17,South,180,0.0,0.0,93,0.00,,,0.00,Weather View 32 v70,2013-10-21 17:41:00,
2013-10-21 09:46:00,31.5,29.7,30.16,South,180,0.0,0.0,93,0.00,,,0.00,Weather View 32 v70,2013-10-21 17:46:00,
2013-10-21 09:51:00,31.8,30.0,30.16,South,180,1.0,0.0,93,0.00,,,0.00,Weather View 32 v70,2013-10-21 17:51:00,
2013-10-21 09:56:00,32.0,30.2,30.16,South,180,1.0,1.0,93,0.00,,,0.00,Weather View 32 v70,2013-10-21 17:56:00,
2013-10-21 10:01:00,32.5,30.7,30.16,South,180,2.0,2.0,93,0.00,,,0.00,Weather View 32 v70,2013-10-21 18:01:00,
2013-10-21 10:06:00,32.7,30.9,30.16,South,180,1.0,2.0,93,0.00,,,0.00,Weather View 32 v70,2013-10-21 18:06:00,
2013-10-21 10:11:00,33.3,31.2,30.16,South,180,1.0,2.0,92,0.00,,,0.00,Weather View 32 v70,2013-10-21 18:11:00,
2013-10-21 10:16:00,33.6,31.5,30.16,South,180,1.0,2.0,92,0.00,,,0.00,Weather View 32 v70,2013-10-21 18:16:00,
2013-10-21 10:21:00,34.0,31.9,30.16,South,180,1.0,2.0,92,0.00,,,0.00,Weather View 32 v70,2013-10-21 18:21:00,
2013-10-21 10:26:00,34.2,31.8,30.16,South,180,1.0,2.0,91,0.00,,,0.00,Weather View 32 v70,2013-10-21 18:26:00,
2013-10-21 10:31:00,34.5,32.2,30.16,South,180,0.0,2.0,91,0.00,,,0.00,Weather View 32 v70,2013-10-21 18:31:00,
2013-10-21 10:36:00,35.1,32.7,30.16,NE,45,1.0,2.0,91,0.00,,,0.00,Weather View 32 v70,2013-10-21 18:36:00,
2013-10-21 10:41:00,35.2,32.9,30.16,NE,45,0.0,2.0,91,0.00,,,0.00,Weather View 32 v70,2013-10-21 18:41:00,
2013-10-21 10:46:00,37.0,34.7,30.16,NNE,22,0.0,2.0,91,0.00,,,0.00,Weather View 32 v70,2013-10-21 18:46:00,
2013-10-21 10:51:00,37.6,34.9,30.16,NNW,338,0.0,2.0,90,0.00,,,0.00,Weather View 32 v70,2013-10-21 18:51:00,
2013-10-21 10:56:00,39.0,36.0,30.16,NNE,22,0.0,2.0,89,0.00,,,0.00,Weather View 32 v70,2013-10-21 18:56:00,
2013-10-21 11:01:00,40.5,37.2,30.16,NE,45,0.0,2.0,88,0.00,,,0.00,Weather View 32 v70,2013-10-21 19:01:00,
2013-10-21 11:06:00,39.4,35.8,30.16,NE,45,0.0,2.0,87,0.00,,,0.00,Weather View 32 v70,2013-10-21 19:06:00,
2013-10-21 11:11:00,38.3,34.8,30.16,NE,45,0.0,1.0,87,0.00,,,0.00,Weather View 32 v70,2013-10-21 19:11:00,
2013-10-21 11:16:00,38.7,35.1,30.16,ENE,68,0.0,1.0,87,0.00,,,0.00,Weather View 32 v70,2013-10-21 19:16:00,
2013-10-21 11:21:00,40.6,36.8,30.16,NNE,22,0.0,1.0,86,0.00,,,0.00,Weather View 32 v70,2013-10-21 19:21:00,
2013-10-21 11:26:00,40.6,36.5,30.15,NE,45,1.0,1.0,85,0.00,,,0.00,Weather View 32 v70,2013-10-21 19:26:00,
2013-10-21 11:31:00,41.4,36.9,30.15,North,0,1.0,1.0,84,0.00,,,0.00,Weather View 32 v70,2013-10-21 19:31:00,
2013-10-21 11:36:00,42.6,38.1,30.15,NE,45,1.0,1.0,84,0.00,,,0.00,Weather View 32 v70,2013-10-21 19:36:00,
2013-10-21 11:41:00,49.3,43.0,30.15,NNW,338,0.0,1.0,79,0.00,,,0.00,Weather View 32 v70,2013-10-21 19:41:00,
2013-10-21 11:46:00,54.9,46.4,30.17,North,0,0.0,1.0,73,0.00,,,0.00,Weather View 32 v70,2013-10-21 19:46:00,
2013-10-21 11:51:00,57.7,45.6,30.17,NW,315,0.0,1.0,64,0.00,,,0.00,Weather View 32 v70,2013-10-21 19:51:00,
2013-10-21 11:56:00,59.5,44.7,30.17,NNE,22,0.0,1.0,58,0.00,,,0.00,Weather View 32 v70,2013-10-21 19:56:00,
2013-10-21 12:01:00,55.8,42.1,30.17,NNE,22,0.0,1.0,60,0.00,,,0.00,Weather View 32 v70,2013-10-21 20:01:00,
2013-10-21 12:06:00,51.6,39.8,30.19,North,0,0.0,1.0,64,0.00,,,0.00,Weather View 32 v70,2013-10-21 20:06:00,
2013-10-21 12:11:00,51.6,39.8,30.19,North,0,0.0,1.0,64,0.00,,,0.00,Weather View 32 v70,2013-10-21 20:11:00,
2013-10-21 12:16:00,47.8,38.5,30.19,NNW,338,1.0,1.0,70,0.00,,,0.00,Weather View 32 v70,2013-10-21 20:16:00,
2013-10-21 12:21:00,48.4,39.4,30.19,NNE,22,1.0,1.0,71,0.00,,,0.00,Weather View 32 v70,2013-10-21 20:21:00,
2013-10-21 12:26:00,49.3,39.9,30.19,NE,45,0.0,1.0,70,0.00,,,0.00,Weather View 32 v70,2013-10-21 20:26:00,
2013-10-21 12:31:00,49.3,39.1,30.19,NE,45,1.0,1.0,68,0.00,,,0.00,Weather View 32 v70,2013-10-21 20:31:00,
2013-10-21 12:36:00,49.6,39.9,30.19,NE,45,1.0,1.0,69,0.00,,,0.00,Weather View 32 v70,2013-10-21 20:36:00,
2013-10-21 12:41:00,49.8,40.4,30.19,NE,45,0.0,1.0,70,0.00,,,0.00,Weather View 32 v70,2013-10-21 20:41:00,
2013-10-21 12:46:00,50.0,40.2,30.20,NE,45,0.0,1.0,69,0.00,,,0.00,Weather View 32 v70,2013-10-21 20:46:00,
2013-10-21 12:51:00,50.7,39.8,30.20,NNE,22,1.0,1.0,66,0.00,,,0.00,Weather View 32 v70,2013-10-21 20:51:00,
2013-10-21 12:56:00,51.1,40.1,30.20,NNE,22,1.0,1.0,66,0.00,,,0.00,Weather View 32 v70,2013-10-21 20:56:00,
2013-10-21 13:01:00,53.1,41.6,30.20,NE,45,1.0,1.0,65,0.00,,,0.00,Weather View 32 v70,2013-10-21 21:01:00,
2013-10-21 13:06:00,55.0,41.4,30.20,NNW,338,1.0,1.0,60,0.00,,,0.00,Weather View 32 v70,2013-10-21 21:06:00,
2013-10-21 13:11:00,51.3,39.1,30.20,NNE,22,0.0,1.0,63,0.00,,,0.00,Weather View 32 v70,2013-10-21 21:11:00,
2013-10-21 13:16:00,50.5,39.6,30.20,North,0,0.0,1.0,66,0.00,,,0.00,Weather View 32 v70,2013-10-21 21:16:00,
2013-10-21 13:21:00,55.6,42.3,30.20,NNE,22,0.0,1.0,61,0.00,,,0.00,Weather View 32 v70,2013-10-21 21:21:00,
2013-10-21 13:26:00,56.5,41.4,30.20,NNW,338,1.0,1.0,57,0.00,,,0.00,Weather View 32 v70,2013-10-21 21:26:00,
2013-10-21 13:31:00,55.0,40.5,30.20,ENE,68,1.0,1.0,58,0.00,,,0.00,Weather View 32 v70,2013-10-21 21:31:00,
2013-10-21 13:36:00,56.7,41.6,30.20,NNE,22,1.0,1.0,57,0.00,,,0.00,Weather View 32 v70,2013-10-21 21:36:00,
2013-10-21 13:41:00,59.7,42.0,30.20,North,0,1.0,1.0,52,0.00,,,0.00,Weather View 32 v70,2013-10-21 21:41:00,
2013-10-21 13:46:00,61.7,40.7,30.20,NNW,338,2.0,2.0,46,0.00,,,0.00,Weather View 32 v70,2013-10-21 21:46:00,
2013-10-21 13:51:00,58.5,39.8,30.20,NE,45,2.0,2.0,50,0.00,,,0.00,Weather View 32 v70,2013-10-21 21:51:00,
2013-10-21 13:56:00,57.2,39.7,30.20,NE,45,2.0,2.0,52,0.00,,,0.00,Weather View 32 v70,2013-10-21 21:56:00,
2013-10-21 14:01:00,57.7,39.2,30.20,NNW,338,2.0,2.0,50,0.00,,,0.00,Weather View 32 v70,2013-10-21 22:01:00,
2013-10-21 14:06:00,54.3,38.5,30.20,NE,45,1.0,2.0,55,0.00,,,0.00,Weather View 32 v70,2013-10-21 22:06:00,
2013-10-21 14:11:00,52.5,38.1,30.20,NNE,22,1.0,2.0,58,0.00,,,0.00,Weather View 32 v70,2013-10-21 22:11:00,
2013-10-21 14:16:00,51.6,37.3,30.20,NNE,22,1.0,2.0,58,0.00,,,0.00,Weather View 32 v70,2013-10-21 22:16:00,
2013-10-21 14:21:00,51.3,37.8,30.20,NNE,22,1.0,2.0,60,0.00,,,0.00,Weather View 32 v70,2013-10-21 22:21:00,
2013-10-21 14:26:00,50.5,37.6,30.20,NW,315,1.0,2.0,61,0.00,,,0.00,Weather View 32 v70,2013-10-21 22:26:00,
2013-10-21 14:31:00,50.2,37.6,30.20,ENE,68,1.0,2.0,62,0.00,,,0.00,Weather View 32 v70,2013-10-21 22:31:00,
2013-10-21 14:36:00,50.0,37.1,30.20,NE,45,1.0,2.0,61,0.00,,,0.00,Weather View 32 v70,2013-10-21 22:36:00,
2013-10-21 14:41:00,50.0,38.3,30.20,North,0,2.0,2.0,64,0.00,,,0.00,Weather View 32 v70,2013-10-21 22:41:00,
2013-10-21 14:46:00,49.5,37.4,30.20,North,0,2.0,2.0,63,0.00,,,0.00,Weather View 32 v70,2013-10-21 22:46:00,
2013-10-21 14:51:00,48.7,37.1,30.20,NNE,22,2.0,2.0,64,0.00,,,0.00,Weather View 32 v70,2013-10-21 22:51:00,
2013-10-21 14:56:00,48.6,36.9,30.20,NNE,22,2.0,2.0,64,0.00,,,0.00,Weather View 32 v70,2013-10-21 22:56:00,
2013-10-21 15:01:00,48.6,36.9,30.20,NNW,338,1.0,2.0,64,0.00,,,0.00,Weather View 32 v70,2013-10-21 23:01:00,
2013-10-21 15:06:00,48.7,37.1,30.20,North,0,2.0,2.0,64,0.00,,,0.00,Weather View 32 v70,2013-10-21 23:06:00,
2013-10-21 15:11:00,49.1,37.8,30.20,NW,315,1.0,2.0,65,0.00,,,0.00,Weather View 32 v70,2013-10-21 23:11:00,
2013-10-21 15:16:00,48.9,37.7,30.20,North,0,2.0,2.0,65,0.00,,,0.00,Weather View 32 v70,2013-10-21 23:16:00,
2013-10-21 15:21:00,49.1,37.8,30.20,NNE,22,2.0,2.0,65,0.00,,,0.00,Weather View 32 v70,2013-10-21 23:21:00,
2013-10-21 15:26:00,49.1,37.8,30.20,NNE,22,1.0,2.0,65,0.00,,,0.00,Weather View 32 v70,2013-10-21 23:26:00,
2013-10-21 15:31:00,48.9,36.9,30.20,NW,315,2.0,2.0,63,0.00,,,0.00,Weather View 32 v70,2013-10-21 23:31:00,
2013-10-21 15:36:00,49.1,37.0,30.20,NNE,22,2.0,2.0,63,0.00,,,0.00,Weather View 32 v70,2013-10-21 23:36:00,
2013-10-21 15:41:00,49.1,37.4,30.20,NNW,338,1.0,2.0,64,0.00,,,0.00,Weather View 32 v70,2013-10-21 23:41:00,
2013-10-21 15:46:00,49.1,35.8,30.21,NNE,22,1.0,2.0,60,0.00,,,0.00,Weather View 32 v70,2013-10-21 23:46:00,
2013-10-21 15:51:00,49.1,35.8,30.21,ESE,112,2.0,2.0,60,0.00,,,0.00,Weather View 32 v70,2013-10-21 23:51:00,
2013-10-21 15:56:00,49.1,35.8,30.21,SSE,158,2.0,2.0,60,0.00,,,0.00,Weather View 32 v70,2013-10-21 23:56:00,
2013-10-21 16:01:00,49.1,35.8,30.21,NNE,22,1.0,2.0,60,0.00,,,0.00,Weather View 32 v70,2013-10-22 00:01:00,
2013-10-21 16:06:00,48.9,35.2,30.21,NNE,22,1.0,2.0,59,0.00,,,0.00,Weather View 32 v70,2013-10-22 00:06:00,
2013-10-21 16:11:00,49.1,35.4,30.21,NE,45,2.0,2.0,59,0.00,,,0.00,Weather View 32 v70,2013-10-22 00:11:00,
2013-10-21 16:16:00,48.9,35.6,30.21,NNE,22,1.0,2.0,60,0.00,,,0.00,Weather View 32 v70,2013-10-22 00:16:00,
2013-10-21 16:21:00,48.7,35.5,30.21,North,0,1.0,2.0,60,0.00,,,0.00,Weather View 32 v70,2013-10-22 00:21:00,
2013-10-21 16:26:00,48.7,35.5,30.21,ENE,68,2.0,2.0,60,0.00,,,0.00,Weather View 32 v70,2013-10-22 00:26:00,
2013-10-21 16:31:00,48.4,35.1,30.21,NNW,338,2.0,2.0,60,0.00,,,0.00,Weather View 32 v70,2013-10-22 00:31:00,
2013-10-21 16:36:00,48.4,35.1,30.21,ESE,112,2.0,2.0,60,0.00,,,0.00,Weather View 32 v70,2013-10-22 00:36:00,
2013-10-21 16:41:00,47.8,34.6,30.21,NE,45,2.0,2.0,60,0.00,,,0.00,Weather View 32 v70,2013-10-22 00:41:00,
2013-10-21 16:46:00,47.5,34.3,30.20,NNW,338,2.0,2.0,60,0.00,,,0.00,Weather View 32 v70,2013-10-22 00:46:00,
2013-10-21 16:51:00,47.1,34.7,30.20,SSW,202,2.0,2.0,62,0.00,,,0.00,Weather View 32 v70,2013-10-22 00:51:00,
2013-10-21 16:56:00,46.9,34.6,30.20,SE,135,2.0,2.0,62,0.00,,,0.00,Weather View 32 v70,2013-10-22 00:56:00,
2013-10-21 17:01:00,46.8,34.4,30.20,ESE,112,3.0,3.0,62,0.00,,,0.00,Weather View 32 v70,2013-10-22 01:01:00,
2013-10-21 17:06:00,46.8,34.8,30.19,ENE,68,2.0,3.0,63,0.00,,,0.00,Weather View 32 v70,2013-10-22 01:06:00,
2013-10-21 17:11:00,46.8,34.8,30.19,South,180,2.0,3.0,63,0.00,,,0.00,Weather View 32 v70,2013-10-22 01:11:00,
2013-10-21 17:16:00,46.4,34.5,30.19,NNW,338,2.0,3.0,63,0.00,,,0.00,Weather View 32 v70,2013-10-22 01:16:00,
2013-10-21 17:21:00,46.6,34.6,30.19,East,90,2.0,3.0,63,0.00,,,0.00,Weather View 32 v70,2013-10-22 01:21:00,
2013-10-21 17:26:00,46.2,34.3,30.19,NNE,22,2.0,3.0,63,0.00,,,0.00,Weather View 32 v70,2013-10-22 01:26:00,
2013-10-21 17:31:00,45.9,34.4,30.19,NNE,22,2.0,3.0,64,0.00,,,0.00,Weather View 32 v70,2013-10-22 01:31:00,
2013-10-21 17:36:00,45.9,34.4,30.19,NE,45,2.0,3.0,64,0.00,,,0.00,Weather View 32 v70,2013-10-22 01:36:00,
2013-10-21 17:41:00,45.5,34.0,30.19,ENE,68,2.0,3.0,64,0.00,,,0.00,Weather View 32 v70,2013-10-22 01:41:00,
2013-10-21 17:46:00,45.5,34.0,30.18,ENE,68,2.0,3.0,64,0.00,,,0.00,Weather View 32 v70,2013-10-22 01:46:00,
2013-10-21 17:51:00,45.0,33.9,30.18,NNE,22,2.0,3.0,65,0.00,,,0.00,Weather View 32 v70,2013-10-22 01:51:00,
2013-10-21 17:54:00,45.0,33.9,30.18,ESE,112,1.0,3.0,65,0.00,,,0.00,Weather View 32 v70,2013-10-22 01:54:00,
2013-10-21 17:59:00,44.8,33.7,30.18,NE,45,2.0,3.0,65,0.00,,,0.00,Weather View 32 v70,2013-10-22 01:59:00,
2013-10-21 18:04:00,44.8,33.7,30.18,ENE,68,2.0,3.0,65,0.00,,,0.00,Weather View 32 v70,2013-10-22 02:04:00,
2013-10-21 18:09:00,44.8,33.7,30.18,ESE,112,3.0,3.0,65,0.00,,,0.00,Weather View 32 v70,2013-10-22 02:09:00,
2013-10-21 18:14:00,44.6,33.5,30.18,ENE,68,3.0,3.0,65,0.00,,,0.00,Weather View 32 v70,2013-10-22 02:14:00,
2013-10-21 18:19:00,44.2,33.6,30.18,East,90,3.0,3.0,66,0.00,,,0.00,Weather View 32 v70,2013-10-22 02:19:00,
2013-10-21 18:24:00,44.2,33.6,30.18,ENE,68,3.0,3.0,66,0.00,,,0.00,Weather View 32 v70,2013-10-22 02:24:00,
2013-10-21 18:29:00,44.1,33.8,30.17,SE,135,3.0,3.0,67,0.00,,,0.00,Weather View 32 v70,2013-10-22 02:29:00,
2013-10-21 18:34:00,44.1,33.8,30.17,ENE,68,3.0,3.0,67,0.00,,,0.00,Weather View 32 v70,2013-10-22 02:34:00,
2013-10-21 18:39:00,44.1,33.8,30.17,East,90,3.0,3.0,67,0.00,,,0.00,Weather View 32 v70,2013-10-22 02:39:00,
2013-10-21 18:44:00,43.9,33.6,30.17,ENE,68,3.0,3.0,67,0.00,,,0.00,Weather View 32 v70,2013-10-22 02:44:00,
2013-10-21 18:49:00,43.7,33.8,30.14,ESE,112,3.0,3.0,68,0.00,,,0.00,Weather View 32 v70,2013-10-22 02:49:00,
2013-10-21 18:54:00,43.5,33.6,30.14,ENE,68,3.0,3.0,68,0.00,,,0.00,Weather View 32 v70,2013-10-22 02:54:00,
2013-10-21 18:59:00,43.5,33.6,30.14,East,90,3.0,3.0,68,0.00,,,0.00,Weather View 32 v70,2013-10-22 02:59:00,
2013-10-21 19:04:00,43.3,33.5,30.14,ENE,68,3.0,3.0,68,0.00,,,0.00,Weather View 32 v70,2013-10-22 03:04:00,
2013-10-21 19:09:00,43.3,33.8,30.12,ESE,112,3.0,3.0,69,0.00,,,0.00,Weather View 32 v70,2013-10-22 03:09:00,
2013-10-21 19:14:00,43.3,33.8,30.12,ESE,112,3.0,3.0,69,0.00,,,0.00,Weather View 32 v70,2013-10-22 03:14:00,
2013-10-21 19:19:00,43.2,33.7,30.12,NNE,22,3.0,4.0,69,0.00,,,0.00,Weather View 32 v70,2013-10-22 03:19:00,
2013-10-21 19:24:00,43.3,33.8,30.12,NE,45,3.0,4.0,69,0.00,,,0.00,Weather View 32 v70,2013-10-22 03:24:00,
2013-10-21 19:29:00,43.5,34.0,30.13,ENE,68,3.0,4.0,69,0.00,,,0.00,Weather View 32 v70,2013-10-22 03:29:00,
2013-10-21 19:34:00,43.5,34.0,30.13,ENE,68,4.0,4.0,69,0.00,,,0.00,Weather View 32 v70,2013-10-22 03:34:00,
2013-10-21 19:39:00,43.7,34.2,30.13,ENE,68,4.0,4.0,69,0.00,,,0.00,Weather View 32 v70,2013-10-22 03:39:00,
2013-10-21 19:44:00,44.1,34.5,30.13,ESE,112,4.0,4.0,69,0.00,,,0.00,Weather View 32 v70,2013-10-22 03:44:00,
2013-10-21 19:49:00,43.9,34.4,30.13,ENE,68,4.0,4.0,69,0.00,,,0.00,Weather View 32 v70,2013-10-22 03:49:00,
2013-10-21 19:54:00,44.2,34.3,30.13,ENE,68,3.0,4.0,68,0.00,,,0.00,Weather View 32 v70,2013-10-22 03:54:00,
2013-10-21 19:59:00,44.2,34.3,30.13,NNE,22,3.0,4.0,68,0.00,,,0.00,Weather View 32 v70,2013-10-22 03:59:00,
2013-10-21 20:01:00,44.2,34.3,30.13,ESE,112,3.0,4.0,68,0.00,,,0.00,Weather View 32 v70,2013-10-22 04:01:00,
2013-10-21 20:06:00,44.2,34.3,30.13,NW,315,3.0,4.0,68,0.00,,,0.00,Weather View 32 v70,2013-10-22 04:06:00,
2013-10-21 20:11:00,44.2,34.3,30.13,NNE,22,3.0,4.0,68,0.00,,,0.00,Weather View 32 v70,2013-10-22 04:11:00,
2013-10-21 20:17:00,44.2,34.3,30.13,North,0,3.0,4.0,68,0.00,,,0.00,Weather View 32 v70,2013-10-22 04:17:00,
2013-10-21 20:22:00,44.2,34.3,30.13,NE,45,4.0,4.0,68,0.00,,,0.00,Weather View 32 v70,2013-10-22 04:22:00,
2013-10-21 20:27:00,44.2,34.0,30.13,NNW,338,3.0,4.0,67,0.00,,,0.00,Weather View 32 v70,2013-10-22 04:27:00,